[[{"header":{"parameterUnit":"m.s-1","parameterCategory":1,"la1":30.2991,"la2":30.254,"lo1":-89.0895,"lo2":-89.0444,"dy":0.0017,"dx":0.0017,"nx":28,"ny":28,"refTime":"2024-07-02T21:00:00:Z","depth":0,"parameterNumber":2,"parameterNumberName":"U-component_of_WINDS"},"data":[0,0,0,0,0,0,0,0,0,0,0,0,0,0,0,0,0,0,0,0,0,0,0,0,0,0,0,0,0,0,0,0,0,0,0,0,0,0,0,0,0,0,0,0,0,0,0,0,0,0,0,0,0,0,0,0,0,0,1.4618,1.4618,0,1.4625,1.4626,1.4626,1.4562,1.456,1.4558,1.4557,1.4565,1.4567,1.4569,0,0,0,0,0,0,0,0,0,0,0,0,0,1.4547,1.4549,1.4618,1.4618,1.4618,1.4625,1.4626,1.4626,1.4562,1.456,1.4558,1.4556,1.4565,1.4567,1.4569,0,0,0,0,0,0,0,0,0,0,0,0,0,1.4569,1.4549,1.4618,1.4587,1.4584,1.4625,1.4626,1.4626,1.4563,1.456,1.4557,1.4555,1.4564,1.4567,1.4569,1.464,0,0,1.4578,1.4579,0,0,0,0,0,0,0,0,1.4568,1.4571,1.4591,1.4589,1.4586,1.459,1.4604,1.4631,1.4563,1.4571,1.4557,1.4554,1.4576,1.4577,1.4585,1.4641,1.4641,1.4578,1.458,1.4581,1.4582,0,0,0,0,0,0,0,1.4566,1.4571,1.4621,1.4592,1.4589,1.4573,1.4573,1.4609,1.4588,1.457,1.4565,1.4567,1.4574,1.4582,1.4584,1.4641,1.4578,1.4581,1.4582,1.4583,1.4753,1.4756,0,0,0,0,0,0,1.4569,1.457,1.462,1.4621,1.457,1.4576,1.4576,1.4592,1.4588,1.4584,1.457,1.4564,1.4579,1.4581,1.4584,1.4666,1.4581,1.4584,1.4585,1.4751,1.4754,1.4757,0,0,0,0,0,0,1.4568,1.4574,1.462,1.4594,1.4599,1.458,1.4598,1.4593,1.4601,1.4587,1.4583,1.4582,1.4577,1.458,1.4626,1.4665,1.4585,1.4588,1.4747,1.4752,1.4756,1.4829,0,0,0,0,0,0,1.4566,1.4574,1.4601,1.4595,1.46,1.4662,1.46,1.4595,1.4606,1.4599,1.4598,1.4595,1.4575,1.4622,1.4629,1.4667,1.459,1.4744,1.4749,1.4754,1.4823,1.4836,1.4846,0,0,0,0,0,1.4564,1.4622,1.4602,1.4609,1.4634,1.4665,1.4668,1.4643,1.461,1.4636,1.4627,1.4595,1.466,1.4628,1.4635,1.4674,1.4741,1.4748,1.4754,1.4818,1.4833,1.4846,0,0,0,0,0,0,1.4633,1.4621,1.4599,1.4657,1.4662,1.4654,1.4687,1.466,1.4675,1.4668,1.4637,1.4637,1.4688,1.4686,1.465,1.4742,1.4695,1.4703,1.4741,1.4755,1.4767,1.4765,1.4592,0,0,0,0,0,1.4655,1.4681,1.4669,1.4721,1.4725,1.4706,1.4718,1.4699,1.4703,1.4705,1.4699,1.4704,1.4726,1.4741,1.476,1.4823,1.4821,1.4854,1.4865,1.4875,1.4882,1.4913,1.4927,1.4778,1.4778,1.4778,0,0,1.4701,1.4697,1.4716,1.4735,1.4737,1.4764,1.4708,1.474,1.4759,1.471,1.4752,1.4748,1.4752,1.4807,1.483,1.4806,1.4923,1.4883,1.489,1.4892,1.4921,1.4936,1.4948,1.4782,1.4782,1.4781,0,0,1.4798,1.4799,1.4841,1.4844,1.4847,1.4834,1.4844,1.4839,1.4834,1.4877,1.4839,1.4863,1.4901,1.4904,1.4911,1.5009,1.4979,1.5016,1.5075,1.5107,1.5118,1.5128,1.5162,1.5175,1.5023,1.5024,1.5024,0,1.4854,1.4894,1.4867,1.4901,1.491,1.4866,1.4909,1.4913,1.4922,1.4929,1.4902,1.4948,1.4948,1.5002,1.5025,1.5033,1.5043,1.5016,1.5119,1.5129,1.5138,1.5169,1.5182,1.5028,1.5027,1.5027,1.5027,0,1.4963,1.4991,1.5025,1.5034,1.5048,1.5086,1.5064,1.5081,1.506,1.5049,1.5092,1.509,1.5107,1.5119,1.51,1.517,1.5155,1.5124,1.5076,1.5157,1.5186,1.5198,1.5034,1.5033,1.5031,1.503,0,0,1.5104,1.5097,1.511,1.5113,1.5113,1.5134,1.517,1.5186,1.52,1.5208,1.5237,1.5269,1.524,1.5248,1.5229,1.5257,1.5332,1.5222,1.5222,1.5241,1.5408,1.5431,1.5445,1.5313,1.5315,1.5317,1.5407,0,1.5197,1.5258,1.5234,1.5296,1.5321,1.5279,1.531,1.5313,1.5304,1.5324,1.5314,1.5337,1.5298,1.5302,1.5327,1.5318,1.5365,1.5311,1.5339,1.534,1.5338,1.5461,1.5485,1.557,1.5419,1.5421,1.5422,0,1.5314,1.5326,1.5391,1.5385,1.5394,1.5423,1.5435,1.5455,1.5457,1.5448,1.5457,1.5431,1.5465,1.5418,1.5464,1.5428,1.5438,1.5435,1.5437,1.5438,1.5385,1.5464,1.5597,1.5609,1.544,1.5439,1.5437,0,1.5409,1.5441,1.5483,1.5487,1.5482,1.5503,1.5501,1.5501,1.5512,1.5523,1.5529,1.5545,1.5553,1.5565,1.5544,1.5512,1.5593,1.5544,1.5586,1.5586,1.5604,1.5603,1.5739,1.5613,1.5612,1.5612,1.5612,0,1.5515,1.5556,1.5525,1.5551,1.5596,1.5568,1.5612,1.5606,1.5606,1.563,1.5596,1.5619,1.559,1.561,1.5594,1.5634,1.5638,1.5631,1.5626,1.5634,1.5635,1.5639,1.5632,1.5616,1.5615,1.5614,1.5614,0,1.5628,1.5609,1.5652,1.5643,1.5642,1.5675,1.5667,1.569,1.5679,1.5709,1.5715,1.5696,1.5718,1.5698,1.572,1.5709,1.5762,1.5749,1.5761,1.5756,1.5799,1.5795,1.5942,1.596,1.5823,1.5824,1.5826,0,1.5696,1.5726,1.572,1.5733,1.5734,1.5756,1.5767,1.574,1.5753,1.5757,1.578,1.5799,1.5812,1.5849,1.5838,1.5853,1.584,1.5891,1.5842,1.5848,1.5839,1.5837,1.5839,1.59,1.5902,1.5903,1.5904,0,1.5819,1.5808,1.5824,1.5838,1.5851,1.586,1.5867,1.588,1.5853,1.5868,1.589,1.5901,1.5922,1.594,1.5953,1.5951,1.5923,1.592,1.593,1.5937,1.5942,1.5939,1.5786,1.5916,1.5915,1.5914,1.5913,1.5913,1.5911,1.5935,1.5934,1.5953,1.5955,1.5962,1.5983,1.5973,1.5991,1.6006,1.5989,1.6015,1.6016,1.6029,1.6031,1.6051,1.6029,1.6045,1.6048,1.6052,1.6058,1.594,1.6053,1.6053,1.6052,1.6052,1.6052,0,1.603,1.6027,1.6045,1.6055,1.607,1.6042,1.6048,1.6062,1.6085,1.6088,1.6102,1.6126,1.6144,1.6134,1.6149,1.6167,1.6155,1.6172,1.617,1.617,1.6076,1.6065,1.6182,1.6182,1.6182,1.6182,1.6182,1.6182,1.6094,1.6133,1.6122,1.6162,1.6159,1.6183,1.6189,1.6195,1.6196,1.6225,1.6239,1.6233,1.623,1.6245,1.626,1.6256,1.6263,1.6285,1.6276,1.6189,1.6176,1.6164,1.6154,1.6287,1.6287,1.6368,1.6368,1.6369]},{"header":{"parameterUnit":"m.s-1","parameterCategory":1,"la1":30.2991,"la2":30.254,"lo1":-89.0895,"lo2":-89.0444,"dy":0.0017,"dx":0.0017,"nx":28,"ny":28,"refTime":"2024-07-02T21:00:00:Z","depth":0,"parameterNumber":3,"parameterNumberName":"V-component_of_WINDS"},"data":[0,0,0,0,0,0,0,0,0,0,0,0,0,0,0,0,0,0,0,0,0,0,0,0,0,0,0,0,0,0,0,0,0,0,0,0,0,0,0,0,0,0,0,0,0,0,0,0,0,0,0,0,0,0,0,0,0,0,3.9467,3.9467,0,3.9511,3.9511,3.9512,3.9455,3.9453,3.9451,3.9449,3.9491,3.9494,3.9497,0,0,0,0,0,0,0,0,0,0,0,0,0,3.933,3.9332,3.9467,3.9467,3.9468,3.9511,3.9511,3.9512,3.9456,3.9453,3.9451,3.9448,3.949,3.9493,3.9497,0,0,0,0,0,0,0,0,0,0,0,0,0,3.9383,3.9333,3.9467,3.9445,3.9444,3.951,3.9511,3.9512,3.9456,3.9453,3.945,3.9447,3.9488,3.9493,3.9497,3.9586,0,0,3.9511,3.9513,0,0,0,0,0,0,0,0,3.938,3.9388,3.9448,3.9447,3.9445,3.9474,3.9478,3.9537,3.9457,3.9451,3.9449,3.9446,3.9487,3.9492,3.9507,3.9588,3.959,3.9511,3.9514,3.9516,3.9517,0,0,0,0,0,0,0,3.9376,3.9386,3.9484,3.9449,3.9447,3.9432,3.9436,3.9489,3.9486,3.9452,3.9448,3.9454,3.9486,3.9502,3.9507,3.959,3.9511,3.9515,3.9518,3.952,3.9744,3.9747,0,0,0,0,0,0,3.9376,3.9383,3.9483,3.9485,3.9404,3.9437,3.9441,3.9468,3.9485,3.9485,3.9456,3.9451,3.9496,3.9502,3.9508,3.9612,3.9516,3.952,3.9523,3.9741,3.9745,3.9748,0,0,0,0,0,0,3.9373,3.9385,3.9481,3.9433,3.9444,3.9442,3.9473,3.9471,3.9487,3.9489,3.9488,3.9474,3.9494,3.9502,3.9567,3.9612,3.9522,3.9526,3.9737,3.9742,3.9746,3.982,0,0,0,0,0,0,3.9369,3.9385,3.942,3.9434,3.9447,3.954,3.9476,3.9474,3.9495,3.9489,3.9505,3.9505,3.9492,3.956,3.9571,3.9617,3.953,3.9733,3.9739,3.9745,3.9814,3.9827,3.9839,0,0,0,0,0,3.9365,3.9438,3.9422,3.9434,3.9491,3.9543,3.955,3.9535,3.9499,3.9533,3.9534,3.9504,3.9606,3.9568,3.9579,3.9627,3.973,3.9737,3.9744,3.9808,3.9824,3.9838,0,0,0,0,0,0,3.9428,3.944,3.9422,3.9503,3.9522,3.9534,3.9576,3.9553,3.9583,3.9575,3.9555,3.9559,3.9628,3.9634,3.9591,3.9712,3.9662,3.9672,3.9706,3.9722,3.9734,3.973,3.9534,0,0,0,0,0,3.9452,3.9495,3.9502,3.9573,3.9584,3.9579,3.9601,3.9588,3.9607,3.9614,3.962,3.9639,3.9674,3.9698,3.9732,3.9815,3.9816,3.9853,3.9865,3.9875,3.9884,3.9926,3.9942,3.9772,3.9772,3.9772,0,0,3.9501,3.9513,3.9541,3.9586,3.96,3.9642,3.9586,3.9634,3.9665,3.9621,3.9683,3.9687,3.9706,3.978,3.9813,3.9787,3.9931,3.9885,3.9893,3.9896,3.9935,3.9951,3.9965,3.9777,3.9776,3.9776,0,0,3.9612,3.9626,3.9686,3.97,3.9722,3.9718,3.9732,3.9746,3.9748,3.9809,3.9777,3.9812,3.9875,3.989,3.9905,4.002,3.9992,4.0031,4.0095,4.0137,4.015,4.0161,4.02,4.0215,4.004,4.004,4.004,0,3.967,3.9735,3.9719,3.9769,3.9789,3.9752,3.981,3.9825,3.9856,3.987,3.9841,3.9918,3.9928,4.0004,4.0031,4.0046,4.006,4.0029,4.0149,4.0161,4.0172,4.0208,4.0223,4.0044,4.0044,4.0043,4.0043,0,3.9803,3.9849,3.9894,3.9925,3.995,4.0004,3.9995,4.0022,4.0006,4.0004,4.0066,4.0077,4.0111,4.0128,4.0113,4.0201,4.0184,4.0153,4.0101,4.0193,4.0227,4.0241,4.0051,4.0049,4.0048,4.0047,0,0,3.9956,3.9977,3.9994,4.0007,4.0027,4.0061,4.0112,4.0146,4.0168,4.0191,4.0232,4.0285,4.0256,4.0274,4.026,4.0297,4.0384,4.0261,4.0261,4.0282,4.0479,4.0501,4.0518,4.0366,4.0369,4.0371,4.0476,0,4.0066,4.0156,4.0142,4.0229,4.0269,4.0234,4.0278,4.0294,4.0294,4.0326,4.0325,4.0362,4.0322,4.0332,4.0367,4.0366,4.0423,4.0359,4.0403,4.0404,4.0398,4.0536,4.056,4.0659,4.049,4.0492,4.0494,0,4.0206,4.0233,4.0324,4.0336,4.0352,4.0393,4.0422,4.0454,4.0471,4.0467,4.0487,4.0466,4.0515,4.0464,4.053,4.0486,4.0503,4.0506,4.0509,4.0512,4.0454,4.0541,4.069,4.0705,4.0515,4.0513,4.0512,0,4.0306,4.0366,4.0427,4.0439,4.0455,4.0484,4.0492,4.0506,4.0527,4.0551,4.0564,4.0594,4.061,4.0633,4.062,4.0584,4.0688,4.0636,4.0685,4.0686,4.0708,4.0707,4.0861,4.0722,4.0722,4.0721,4.0721,0,4.0429,4.0485,4.0472,4.051,4.0571,4.0553,4.0614,4.0617,4.063,4.0666,4.0637,4.0671,4.0653,4.0685,4.0676,4.0731,4.0739,4.0736,4.0733,4.0738,4.0738,4.0748,4.074,4.0725,4.0724,4.0724,4.0723,0,4.0551,4.0544,4.0609,4.0618,4.0622,4.0667,4.0674,4.0708,4.0705,4.0751,4.0761,4.0755,4.0792,4.0781,4.0821,4.0814,4.0884,4.0872,4.0878,4.0875,4.0924,4.0919,4.1089,4.111,4.0959,4.096,4.0962,0,4.0629,4.0672,4.0686,4.0708,4.0718,4.0755,4.0776,4.076,4.0782,4.0804,4.0835,4.0869,4.0895,4.0955,4.0953,4.0983,4.0971,4.1028,4.0975,4.0978,4.097,4.0967,4.097,4.1039,4.104,4.1042,4.1043,0,4.0768,4.0762,4.0794,4.0824,4.085,4.0872,4.0892,4.0912,4.0897,4.0924,4.0961,4.0981,4.1021,4.1055,4.1081,4.1087,4.1062,4.106,4.1073,4.1078,4.1079,4.1077,4.0906,4.1056,4.1055,4.1054,4.1053,4.1053,4.0869,4.0905,4.092,4.0955,4.0968,4.0987,4.1019,4.102,4.1051,4.1082,4.1071,4.1113,4.1126,4.116,4.1169,4.1201,4.1179,4.1198,4.1202,4.1207,4.1212,4.1075,4.1206,4.1206,4.1205,4.1205,4.1205,0,4.1005,4.1013,4.1046,4.1074,4.1102,4.1077,4.1097,4.1121,4.1158,4.1174,4.12,4.1242,4.1273,4.1275,4.1304,4.1329,4.1318,4.1337,4.1334,4.1335,4.1231,4.1216,4.1345,4.1345,4.1345,4.1345,4.1345,4.1345,4.1079,4.1137,4.1133,4.1195,4.1202,4.1244,4.1257,4.1274,4.1285,4.1333,4.136,4.1361,4.1369,4.1399,4.1426,4.1426,4.1437,4.146,4.1455,4.1357,4.1343,4.133,4.1316,4.1463,4.1463,4.1556,4.1557,4.1558]}]]